N142RC MDJB-MDJB

Flight info

Callsign N142RC
Flight time 0h 3m
Altitude 4000
Route VFR
Aircraft B429/L-SFG/C

Departure

Time 2026-04-18 01:18
Airport La Isabela International Airport (MDJB)

Arrival

Time 2026-04-18 01:21
Airport La Isabela International Airport (MDJB)
Time Latitude Longitude Altitude Speed Heading
2026-04-18 01:13 18.57898 -69.98248 82 ft 0 kts 96°
2026-04-18 01:17 18.57900 -69.98261 88 ft 3 kts 129°
2026-04-18 01:17 18.57809 -69.98281 118 ft 49 kts 185°
2026-04-18 01:17 18.57064 -69.98348 200 ft 141 kts 182°
2026-04-18 01:18 18.56096 -69.98160 677 ft 148 kts 167°
2026-04-18 01:18 18.55047 -69.97937 916 ft 155 kts 168°
2026-04-18 01:18 18.53971 -69.97723 1037 ft 158 kts 169°
2026-04-18 01:18 18.52932 -69.97534 1033 ft 152 kts 170°
2026-04-18 01:19 18.51880 -69.97361 1043 ft 154 kts 171°
2026-04-18 01:19 18.50835 -69.97205 1063 ft 153 kts 172°
2026-04-18 01:19 18.49774 -69.97059 1034 ft 155 kts 172°
2026-04-18 01:19 18.48716 -69.96923 1067 ft 150 kts 173°
2026-04-18 01:20 18.47650 -69.96794 993 ft 155 kts 173°
2026-04-18 01:20 18.46576 -69.96670 897 ft 153 kts 174°
2026-04-18 01:20 18.45512 -69.96551 760 ft 154 kts 174°
2026-04-18 01:20 18.44488 -69.96443 633 ft 133 kts 174°
2026-04-18 01:21 18.43673 -69.96354 621 ft 107 kts 167°
2026-04-18 01:21 18.43221 -69.95993 643 ft 63 kts 102°
2026-04-18 01:21 18.43199 -69.95588 502 ft 48 kts 89°
2026-04-18 01:21 18.43211 -69.95266 369 ft 44 kts 80°
2026-04-18 01:22 18.43271 -69.94977 233 ft 36 kts 77°
2026-04-18 01:22 18.43320 -69.94790 123 ft 18 kts 75°
2026-04-18 01:22 18.43338 -69.94726 61 ft 3 kts 94°
2026-04-18 01:22 18.43341 -69.94716 56 ft 1 kts 122°
2026-04-18 01:23 18.43341 -69.94711 52 ft 0 kts 148°
2026-04-18 01:23 18.43341 -69.94712 52 ft 0 kts 148°
2026-04-18 01:35 18.43342 -69.94712 58 ft 1 kts 161°
2026-04-18 01:35 18.43264 -69.94654 104 ft 45 kts 134°
2026-04-18 01:35 18.43559 -69.94182 136 ft 129 kts 18°
2026-04-18 01:35 18.44453 -69.94389 539 ft 144 kts 340°
2026-04-18 01:36 18.45426 -69.94708 961 ft 144 kts 345°
2026-04-18 01:36 18.46407 -69.94973 1312 ft 147 kts 347°
2026-04-18 01:36 18.47392 -69.95223 1629 ft 149 kts 348°
2026-04-18 01:36 18.48410 -69.95477 1910 ft 148 kts 349°
2026-04-18 01:37 18.49405 -69.95724 2361 ft 146 kts 349°
2026-04-18 01:37 18.50395 -69.95967 2763 ft 148 kts 349°
2026-04-18 01:37 18.51409 -69.96213 3116 ft 144 kts 350°
2026-04-18 01:37 18.52362 -69.96443 3727 ft 137 kts 350°
2026-04-18 01:38 18.53302 -69.96671 4319 ft 139 kts 350°
2026-04-18 01:38 18.54256 -69.96899 4778 ft 142 kts 350°
2026-04-18 01:38 18.55206 -69.97129 5333 ft 135 kts 349°
2026-04-18 01:38 18.56067 -69.97454 6053 ft 131 kts 338°
2026-04-18 01:39 18.56907 -69.97921 6573 ft 136 kts 334°
2026-04-18 01:39 18.57720 -69.98383 7240 ft 130 kts 334°
2026-04-18 01:39 18.58529 -69.98822 7831 ft 134 kts 335°
2026-04-18 01:39 18.59361 -69.99275 8370 ft 135 kts 334°
2026-04-18 01:40 18.60211 -69.99741 8744 ft 143 kts 334°
2026-04-18 01:40 18.61078 -70.00211 9155 ft 137 kts 334°
2026-04-18 01:40 18.61917 -70.00665 9678 ft 133 kts 334°
2026-04-18 01:40 18.62762 -70.01120 10049 ft 142 kts 334°
2026-04-18 01:41 18.63678 -70.01497 10290 ft 145 kts 345°
2026-04-18 01:41 18.64657 -70.01799 10320 ft 153 kts 345°
2026-04-18 01:41 18.65696 -70.02155 10301 ft 155 kts 342°
2026-04-18 01:41 18.66705 -70.02554 10274 ft 156 kts 340°
2026-04-18 01:42 18.67708 -70.02993 10263 ft 155 kts 338°
2026-04-18 01:42 18.68688 -70.03454 10262 ft 155 kts 337°
2026-04-18 01:42 18.69653 -70.03929 10262 ft 155 kts 336°
2026-04-18 01:42 18.70642 -70.04430 10262 ft 155 kts 335°
2026-04-18 01:43 18.71616 -70.04931 10262 ft 155 kts 335°
2026-04-18 01:43 18.72589 -70.05438 10262 ft 155 kts 335°
2026-04-18 01:43 18.73550 -70.05940 10263 ft 155 kts 335°
2026-04-18 01:43 18.74516 -70.06447 10263 ft 155 kts 335°
2026-04-18 01:44 18.75497 -70.06961 10263 ft 155 kts 335°
2026-04-18 01:44 18.76467 -70.07469 10263 ft 155 kts 335°
2026-04-18 01:44 18.77426 -70.07969 10263 ft 155 kts 335°
2026-04-18 01:44 18.78397 -70.08475 10263 ft 155 kts 335°
2026-04-18 01:45 18.79367 -70.08977 10264 ft 155 kts 335°
2026-04-18 01:45 18.80342 -70.09482 10264 ft 155 kts 335°
2026-04-18 01:45 18.81314 -70.09982 10264 ft 156 kts 335°
2026-04-18 01:45 18.82288 -70.10483 10264 ft 156 kts 335°
2026-04-18 01:46 18.82936 -70.10814 10264 ft 156 kts 335°
2026-04-18 01:46 18.84229 -70.11475 10264 ft 156 kts 335°
2026-04-18 01:46 18.84888 -70.11811 10264 ft 156 kts 335°
2026-04-18 01:46 18.85864 -70.12306 10264 ft 156 kts 335°
2026-04-18 01:47 18.86840 -70.12801 10264 ft 156 kts 335°
2026-04-18 01:47 18.87820 -70.13296 10265 ft 156 kts 336°
2026-04-18 01:47 18.88788 -70.13784 10265 ft 156 kts 336°
2026-04-18 01:47 18.89765 -70.14276 10265 ft 156 kts 336°
2026-04-18 01:48 18.90746 -70.14769 10265 ft 156 kts 336°
2026-04-18 01:48 18.91711 -70.15252 10206 ft 150 kts 336°
2026-04-18 01:48 18.92639 -70.15716 10193 ft 147 kts 336°
2026-04-18 01:48 18.93559 -70.16178 10213 ft 148 kts 336°
2026-04-18 01:49 18.94503 -70.16650 10241 ft 151 kts 336°
2026-04-18 01:49 18.95470 -70.17134 10248 ft 154 kts 336°
2026-04-18 01:49 18.96433 -70.17615 10236 ft 153 kts 336°
2026-04-18 01:49 18.97393 -70.18093 10235 ft 152 kts 336°
2026-04-18 01:50 18.98337 -70.18564 10235 ft 152 kts 336°
2026-04-18 01:50 18.99300 -70.19044 10234 ft 153 kts 336°
2026-04-18 01:50 19.00265 -70.19525 10234 ft 153 kts 336°
2026-04-18 01:50 19.01225 -70.20003 10234 ft 153 kts 336°
2026-04-18 01:51 19.02191 -70.20483 10235 ft 153 kts 336°
2026-04-18 01:51 19.03150 -70.20960 10235 ft 153 kts 336°
2026-04-18 01:51 19.04105 -70.21434 10235 ft 153 kts 336°
2026-04-18 01:51 19.05069 -70.21912 10235 ft 153 kts 336°
2026-04-18 01:52 19.06032 -70.22390 10235 ft 153 kts 336°
2026-04-18 01:52 19.07002 -70.22870 10235 ft 153 kts 336°
2026-04-18 01:52 19.07964 -70.23347 10235 ft 153 kts 336°
2026-04-18 01:52 19.08926 -70.23824 10236 ft 153 kts 336°
2026-04-18 01:53 19.09883 -70.24297 10236 ft 153 kts 336°
2026-04-18 01:53 19.10848 -70.24775 10236 ft 153 kts 336°
2026-04-18 01:53 19.11815 -70.25254 10236 ft 153 kts 336°
2026-04-18 01:54 19.13739 -70.26206 10237 ft 153 kts 336°
2026-04-18 01:54 19.14699 -70.26682 10237 ft 153 kts 336°
2026-04-18 01:54 19.15667 -70.27160 10237 ft 153 kts 336°
2026-04-18 01:54 19.16635 -70.27639 10237 ft 153 kts 336°
2026-04-18 01:55 19.17594 -70.28115 10237 ft 153 kts 336°
2026-04-18 01:55 19.18565 -70.28596 10237 ft 153 kts 336°
2026-04-18 01:55 19.19535 -70.29077 10237 ft 153 kts 336°
2026-04-18 01:55 19.20501 -70.29555 10237 ft 154 kts 336°
2026-04-18 01:56 19.21471 -70.30036 10237 ft 154 kts 336°
2026-04-18 01:56 19.22438 -70.30515 10237 ft 154 kts 336°
2026-04-18 01:56 19.23406 -70.30994 10237 ft 154 kts 336°
2026-04-18 01:56 19.24376 -70.31473 10237 ft 154 kts 336°
2026-04-18 01:57 19.25347 -70.31953 10237 ft 154 kts 336°
2026-04-18 01:57 19.26303 -70.32427 10237 ft 154 kts 336°
2026-04-18 01:57 19.27275 -70.32908 10238 ft 154 kts 336°
2026-04-18 01:57 19.28247 -70.33389 10238 ft 154 kts 336°
2026-04-18 01:58 19.29216 -70.33868 10238 ft 154 kts 336°
2026-04-18 01:58 19.30185 -70.34348 10238 ft 154 kts 336°
2026-04-18 01:58 19.31162 -70.34832 10238 ft 154 kts 336°
2026-04-18 01:58 19.32137 -70.35315 10238 ft 154 kts 336°
2026-04-18 01:59 19.33110 -70.35797 10238 ft 154 kts 336°
2026-04-18 01:59 19.34068 -70.36272 10239 ft 154 kts 336°
2026-04-18 01:59 19.35037 -70.36752 10239 ft 154 kts 336°
2026-04-18 01:59 19.36012 -70.37235 10239 ft 154 kts 336°
2026-04-18 02:00 19.36987 -70.37718 10239 ft 154 kts 336°
2026-04-18 02:00 19.37963 -70.38202 10239 ft 154 kts 336°
2026-04-18 02:00 19.38922 -70.38678 10239 ft 154 kts 336°
2026-04-18 02:00 19.39906 -70.39166 10240 ft 154 kts 336°
2026-04-18 02:01 19.40865 -70.39642 10240 ft 154 kts 336°
2026-04-18 02:01 19.41836 -70.40123 10240 ft 154 kts 336°
2026-04-18 02:01 19.42811 -70.40606 10240 ft 154 kts 336°
2026-04-18 02:01 19.43788 -70.41091 10240 ft 154 kts 336°
2026-04-18 02:02 19.44758 -70.41572 10240 ft 154 kts 336°
2026-04-18 02:02 19.45732 -70.42056 10241 ft 154 kts 336°
2026-04-18 02:02 19.46707 -70.42540 10241 ft 154 kts 336°
2026-04-18 02:02 19.47678 -70.43022 10241 ft 154 kts 336°
2026-04-18 02:03 19.48652 -70.43505 10225 ft 156 kts 336°
2026-04-18 02:03 19.49639 -70.43995 10131 ft 158 kts 336°
2026-04-18 02:03 19.50640 -70.44492 10011 ft 159 kts 336°
2026-04-18 02:03 19.51640 -70.44990 9888 ft 159 kts 336°
2026-04-18 02:04 19.52629 -70.45483 9766 ft 159 kts 336°
2026-04-18 02:04 19.53626 -70.45981 9643 ft 159 kts 336°
2026-04-18 02:04 19.54628 -70.46481 9519 ft 159 kts 336°
2026-04-18 02:04 19.55626 -70.46978 9396 ft 159 kts 336°
2026-04-18 02:05 19.56633 -70.47478 9272 ft 159 kts 336°
2026-04-18 02:05 19.57635 -70.47976 9149 ft 159 kts 336°
2026-04-18 02:05 19.58633 -70.48471 9026 ft 159 kts 336°
2026-04-18 02:05 19.59639 -70.48971 8902 ft 159 kts 336°
2026-04-18 02:06 19.60647 -70.49471 8778 ft 160 kts 337°
2026-04-18 02:06 19.61655 -70.49971 8655 ft 160 kts 337°
2026-04-18 02:06 19.62662 -70.50472 8531 ft 160 kts 337°
2026-04-18 02:06 19.63672 -70.50974 8407 ft 160 kts 337°
2026-04-18 02:07 19.64670 -70.51471 8285 ft 160 kts 337°
2026-04-18 02:07 19.65681 -70.51975 8161 ft 160 kts 337°
2026-04-18 02:07 19.66694 -70.52479 8037 ft 160 kts 337°
2026-04-18 02:07 19.67706 -70.52983 7913 ft 161 kts 337°
2026-04-18 02:08 19.68709 -70.53483 7791 ft 161 kts 337°
2026-04-18 02:08 19.69716 -70.53984 7668 ft 160 kts 337°
2026-04-18 02:08 19.70732 -70.54488 7543 ft 160 kts 337°
2026-04-18 02:08 19.71740 -70.54989 7420 ft 160 kts 337°
2026-04-18 02:09 19.72747 -70.55489 7296 ft 160 kts 337°
2026-04-18 02:09 19.73757 -70.55992 7173 ft 160 kts 337°
2026-04-18 02:09 19.74764 -70.56499 7049 ft 160 kts 336°
2026-04-18 02:09 19.75622 -70.57255 6916 ft 162 kts 313°
2026-04-18 02:10 19.76304 -70.58203 6802 ft 164 kts 306°
2026-04-18 02:10 19.76965 -70.59212 6677 ft 164 kts 305°
2026-04-18 02:10 19.77602 -70.60203 6555 ft 165 kts 305°
2026-04-18 02:10 19.78233 -70.61191 6344 ft 157 kts 304°
2026-04-18 02:11 19.78800 -70.62145 5921 ft 148 kts 302°
2026-04-18 02:11 19.79329 -70.63063 5586 ft 144 kts 302°
2026-04-18 02:11 19.79855 -70.63984 5177 ft 147 kts 302°
2026-04-18 02:11 19.80386 -70.64916 4653 ft 151 kts 302°
2026-04-18 02:12 19.80935 -70.65885 4048 ft 152 kts 302°
2026-04-18 02:12 19.81450 -70.66834 3636 ft 147 kts 300°
2026-04-18 02:12 19.81947 -70.67761 3311 ft 143 kts 301°
2026-04-18 02:12 19.82459 -70.68674 2926 ft 144 kts 302°
2026-04-18 02:13 19.82994 -70.69588 2459 ft 147 kts 303°
2026-04-18 02:13 19.83548 -70.70507 1929 ft 148 kts 304°
2026-04-18 02:13 19.84092 -70.71391 1616 ft 138 kts 305°
2026-04-18 02:13 19.84611 -70.72223 1360 ft 133 kts 305°
2026-04-18 02:14 19.85107 -70.73005 1216 ft 124 kts 305°
2026-04-18 02:14 19.85487 -70.73597 1175 ft 122 kts 306°
2026-04-18 02:14 19.85975 -70.74338 1131 ft 128 kts 306°
2026-04-18 02:14 19.86530 -70.75171 1206 ft 148 kts 306°
2026-04-18 02:15 19.87105 -70.76094 1246 ft 150 kts 302°
2026-04-18 02:15 19.87614 -70.77046 1391 ft 147 kts 299°
2026-04-18 02:15 19.88078 -70.78041 1409 ft 150 kts 296°
2026-04-18 02:15 19.88503 -70.79043 1220 ft 148 kts 295°
2026-04-18 02:16 19.88901 -70.80050 1015 ft 146 kts 293°
2026-04-18 02:16 19.89247 -70.80992 890 ft 141 kts 288°
2026-04-18 02:16 19.89223 -70.81989 740 ft 134 kts 244°
2026-04-18 02:17 19.88606 -70.82477 678 ft 101 kts 184°
2026-04-18 02:17 19.87979 -70.82307 559 ft 84 kts 155°
2026-04-18 02:17 19.87498 -70.82065 521 ft 71 kts 152°
2026-04-18 02:17 19.87130 -70.81866 439 ft 46 kts 151°
2026-04-18 02:18 19.86965 -70.81707 266 ft 23 kts 123°
2026-04-18 02:18 19.86918 -70.81618 185 ft 6 kts 117°
2026-04-18 02:18 19.86911 -70.81595 156 ft 0 kts 120°
2026-04-18 02:18 19.86910 -70.81591 149 ft 0 kts 122°
2026-04-18 02:19 19.86910 -70.81590 147 ft 0 kts 124°
2026-04-18 02:19 19.86910 -70.81591 147 ft 0 kts 124°
2026-04-18 02:22 19.86910 -70.81592 146 ft 0 kts 124°